Location: *
(50.3440°N, 18.6237°E)
Time: 14:42:46
(UTC+00:00)

Cosmos 2360 Rocket - Pass Details

Date: 30 November 2020
Orbit: 833 x 845 km, 71.0° (Epoch: 27 January)

Event Time Altitude Azimuth Distance (km) Brightness Sun altitude
Rises 15:53:30 0° 271° (W) 3,382 6.7 -10.4°
Reaches altitude 10° 15:57:00 10° 293° (WNW) 2,450 5.3 -10.9°
Maximum altitude 16:00:19 16° 330° (NNW) 2,073 4.4 -11.4°
Drops below altitude 10° 16:03:39 10° 6° (N) 2,456 4.4 -11.9°
Enters shadow 16:05:56 - 22° (NNE) 3,026 4.7 -12.3°
